Weather History for Naples, FL

Change the Weather History Date:

Sunday, November 3, 2013

  Actual Average Record
Temperature  
Mean Temperature 74 °F 75 °F  
Max Temperature 82 °F 84 °F 89 °F (1973)
Min Temperature 66 °F 66 °F 50 °F (1963)
Degree Days  
Heating Degree Days 0 0  
Month to date heating degree days 0 0  
Since 1 July heating degree days 0 1  
Cooling Degree Days 9 10  
Month to date cooling degree days 32 30  
Year to date cooling degree days 3673 3625  
Growing Degree Days 24 (Base 50)    
Moisture  
Dew Point 54 °F    
Average Humidity 56    
Maximum Humidity 76    
Minimum Humidity 35    
Precipitation  
Precipitation 0.00 in 0.11 in 1.26 in (1987)
Month to date precipitation 0.00 0.33  
Year to date precipitation 48.22 48.73  
Snow  
Snow 0.00 in - - ()
Month to date snowfall 0.0  
Since 1 July snowfall 0.0  
Since 1 September snowfall 0.0  
Snow Depth 0.00 in    
Sea Level Pressure  
Sea Level Pressure 29.99 in    
Wind  
Wind Speed 10 mph (NNE)    
Max Wind Speed 20 mph    
Max Gust Speed 26 mph    
Visibility 10 miles    
Events      
T = Trace of Precipitation, MM = Missing Value Source: NWS Daily Summary

Daily Weather History Graph

Daily Weather History Graph

Search for Another Location

Airport:

Trip Planner

Search our weather history database for the weather conditions in past years. The results will help you decide how hot, cold, wet, or windy it might be!

Date:

Astronomy

Nov. 03, 2013 Rise Set
Actual Time 6:37 AM EST 5:43 PM EST
Civil Twilight 6:13 AM EST 6:07 PM EST
Nautical Twilight 5:46 AM EST 6:34 PM EST
Astronomical Twilight 5:18 AM EST 7:01 PM EST
Moon 6:38 AM EST (11/3) 6:00 PM EST (11/3)
Length of Visible Light 11h 53m
Length of Day
11h 06m
New Moon, 0% of the Moon is Illuminated
Nov 3
New Moon
Nov 10
First Quarter
Nov 17
Full
Nov 25
Last Quarter
Dec 2
New

Hourly Weather History & Observations

Time (EST) Temp. Heat Index Dew Point Humidity Pressure Visibility Wind Dir Wind Speed Gust Speed Precip Events Conditions
12:53 AM 72.0 °F - 61.0 °F 68% 29.96 in 10.0 mi North 6.9 mph - N/A   Overcast
1:53 AM 71.1 °F - 61.0 °F 70% 29.94 in 10.0 mi North 5.8 mph - N/A   Overcast
1:53 AM 70.0 °F - 61.0 °F 73% 29.95 in 10.0 mi North 4.6 mph - N/A   Overcast
2:53 AM 69.1 °F - 60.1 °F 73% 29.93 in 10.0 mi North 8.1 mph - N/A   Overcast
3:53 AM 68.0 °F - 60.1 °F 76% 29.94 in 10.0 mi North 10.4 mph - N/A   Overcast
4:53 AM 68.0 °F - 59.0 °F 73% 29.94 in 10.0 mi NNE 11.5 mph 17.3 mph N/A   Overcast
5:53 AM 68.0 °F - 55.9 °F 65% 29.96 in 10.0 mi NNE 10.4 mph 18.4 mph N/A   Overcast
6:53 AM 66.9 °F - 55.9 °F 68% 29.98 in 10.0 mi NNE 9.2 mph - N/A   Partly Cloudy
7:53 AM 68.0 °F - 55.9 °F 65% 30.00 in 10.0 mi North 12.7 mph 18.4 mph N/A   Clear
8:53 AM 72.0 °F - 53.1 °F 51% 30.02 in 10.0 mi NNE 15.0 mph 21.9 mph N/A   Clear
9:53 AM 75.9 °F - 52.0 °F 43% 30.02 in 10.0 mi NNE 13.8 mph 21.9 mph N/A   Clear
10:53 AM 77.0 °F - 50.0 °F 39% 30.02 in 10.0 mi North 10.4 mph 21.9 mph N/A   Clear
11:53 AM 81.0 °F 80.4 °F 53.1 °F 38% 30.01 in 10.0 mi NNE 11.5 mph 18.4 mph N/A   Clear
12:53 PM 81.0 °F - 51.1 °F 35% 29.99 in 10.0 mi NNE 12.7 mph 20.7 mph N/A   Clear
1:53 PM 81.0 °F - 51.1 °F 35% 29.96 in 10.0 mi NNE 12.7 mph - N/A   Clear
2:53 PM 81.0 °F - 50.0 °F 34% 29.95 in 10.0 mi NNE 9.2 mph - N/A   Clear
3:53 PM 81.0 °F - 50.0 °F 34% 29.96 in 10.0 mi NNE 10.4 mph 20.7 mph N/A   Clear
4:53 PM 79.0 °F - 48.9 °F 35% 29.96 in 10.0 mi NNE 12.7 mph - N/A   Clear
5:53 PM 75.0 °F - 48.0 °F 38% 29.98 in 10.0 mi NNE 6.9 mph - N/A   Clear
6:53 PM 73.0 °F - 48.9 °F 42% 30.01 in 10.0 mi NNE 5.8 mph - N/A   Partly Cloudy
7:53 PM 71.1 °F - 48.9 °F 45% 30.03 in 10.0 mi NNE 6.9 mph - N/A   Clear
8:53 PM 69.1 °F - 51.1 °F 53% 30.04 in 10.0 mi NE 13.8 mph - N/A   Clear
9:53 PM 68.0 °F - 51.1 °F 55% 30.05 in 10.0 mi NNE 10.4 mph - N/A   Clear
10:53 PM 68.0 °F - 52.0 °F 56% 30.05 in 10.0 mi NNE 12.7 mph - N/A   Clear